Weather History for Ashland, WI

Change the Weather History Date:

Monday, February 4, 2013

  Actual Average Record
Temperature  
Mean Temperature 2 °F -  
Max Temperature 12 °F 23 °F 53 °F (1991)
Min Temperature -9 °F 1 °F -27 °F (1982)
Degree Days  
Heating Degree Days 64    
Moisture  
Dew Point -9 °F    
Average Humidity 64    
Maximum Humidity 84    
Minimum Humidity 35    
Precipitation  
Precipitation 0.00 in - - ()
Sea Level Pressure  
Sea Level Pressure 30.01 in    
Wind  
Wind Speed 6 mph (SW)    
Max Wind Speed 9 mph    
Max Gust Speed -    
Visibility 10 miles    
Events      
Averages and records for this station are not official NWS values.
T = Trace of Precipitation, MM = Missing Value Source: NWS Daily Summary

Daily Weather History Graph

Daily Weather History Graph

Search for Another Location

Airport:

Trip Planner

Search our weather history database for the weather conditions in past years. The results will help you decide how hot, cold, wet, or windy it might be!

Date:

Astronomy

Feb. 04, 2013 Rise Set
Actual Time 7:23 AM CST 5:12 PM CST
Civil Twilight 6:51 AM CST 5:44 PM CST
Nautical Twilight 6:15 AM CST 6:20 PM CST
Astronomical Twilight 5:40 AM CST 6:55 PM CST
Moon 2:03 AM CST (2/4) 11:31 AM CST (2/4)
Length of Visible Light 10h 53m
Length of Day
9h 49m
Last Quarter, 37% of the Moon is Illuminated
Feb 4
Last Quarter
Feb 10
New
Feb 17
First Quarter
Feb 25
Full
Mar 4
Last Quarter

Hourly Weather History & Observations

Time (CST) Temp. Windchill Dew Point Humidity Pressure Visibility Wind Dir Wind Speed Gust Speed Precip Events Conditions
12:53 AM -2.0 °F -12.2 °F -8.0 °F 76% 30.07 in 10.0 mi WSW 4.6 mph - N/A   Clear
1:53 AM -5.1 °F -17.6 °F -11.0 °F 76% 30.08 in 10.0 mi West 5.8 mph - N/A   Clear
2:53 AM -9.0 °F -22.3 °F -13.0 °F 83% 30.09 in 10.0 mi West 5.8 mph - N/A   Clear
5:00 AM -7.6 °F -18.8 °F -11.2 °F 84% 30.02 in 10.0 mi WSW 4.6 mph - N/A   Mostly Cloudy
5:53 AM -8.0 °F -19.2 °F -13.0 °F 79% 30.10 in 10.0 mi WSW 4.6 mph - N/A   Mostly Cloudy
6:00 AM -9.4 °F -22.7 °F -13.0 °F 84% 30.02 in 10.0 mi WSW 5.8 mph - N/A   Scattered Clouds
6:08 AM -9.4 °F -22.7 °F -14.8 °F 77% 30.02 in 10.0 mi WSW 5.8 mph - N/A   Mostly Cloudy
6:15 AM -7.6 °F -18.8 °F -13.0 °F 77% 30.02 in 10.0 mi WSW 4.6 mph - N/A   Scattered Clouds
6:53 AM -8.0 °F -19.2 °F -13.0 °F 79% 30.11 in 10.0 mi WSW 4.6 mph - N/A   Scattered Clouds
7:23 AM -9.4 °F -22.7 °F -13.0 °F 84% 30.02 in 10.0 mi WSW 5.8 mph - N/A   Mostly Cloudy
7:31 AM -9.4 °F -22.7 °F -14.8 °F 77% 30.02 in 10.0 mi WSW 5.8 mph - N/A   Scattered Clouds
7:53 AM -7.1 °F -19.9 °F -11.9 °F 79% 30.10 in 10.0 mi WSW 5.8 mph - N/A   Clear
8:53 AM -2.9 °F -15.0 °F -7.1 °F 82% 30.10 in 10.0 mi WSW 5.8 mph - N/A   Clear
9:53 AM 1.9 °F -7.6 °F -4.0 °F 76% 30.10 in 10.0 mi WSW 4.6 mph - N/A   Clear
10:53 AM 6.1 °F -5.6 °F -4.0 °F 63% 30.10 in 10.0 mi WSW 6.9 mph - N/A   Clear
11:53 AM 9.0 °F -0.9 °F -5.1 °F 53% 30.08 in 10.0 mi WSW 5.8 mph - N/A   Clear
12:53 PM 10.0 °F 1.8 °F -5.1 °F 51% 30.04 in 10.0 mi South 4.6 mph - N/A   Clear
1:53 PM 12.0 °F 1.5 °F -8.0 °F 41% 30.02 in 10.0 mi WSW 6.9 mph - N/A   Clear
2:53 PM 12.9 °F 1.6 °F -9.9 °F 35% 30.00 in 10.0 mi SW 8.1 mph - N/A   Clear
3:53 PM 12.9 °F 5.2 °F -9.9 °F 35% 30.00 in 10.0 mi WSW 4.6 mph - N/A   Mostly Cloudy
4:53 PM 12.0 °F 4.1 °F -9.0 °F 39% 29.97 in 10.0 mi WSW 4.6 mph - N/A   Overcast
5:53 PM 7.0 °F -1.7 °F -9.9 °F 46% 29.97 in 10.0 mi SSW 4.6 mph - N/A   Clear
6:53 PM 5.0 °F -6.9 °F -9.9 °F 50% 29.95 in 10.0 mi SSW 6.9 mph - N/A   Clear
7:53 PM 5.0 °F -6.9 °F -9.9 °F 50% 29.94 in 10.0 mi SW 6.9 mph - N/A   Clear
8:53 PM 8.1 °F -2.0 °F -8.0 °F 48% 29.91 in 10.0 mi SSW 5.8 mph - N/A   Overcast
9:53 PM 10.0 °F 0.4 °F -5.1 °F 51% 29.88 in 10.0 mi SSW 5.8 mph - N/A   Overcast
10:53 PM 10.0 °F -1.9 °F -4.0 °F 53% 29.86 in 10.0 mi SW 8.1 mph - N/A   Overcast
11:53 PM 10.9 °F -1.8 °F -0.9 °F 59% 29.83 in 7.0 mi SSW 9.2 mph - 0.00 in   Overcast